CW4438 Weather Reports


Display with metric or nautical units.
time (UTC)temp
F
wind
direction
speed
MPH
gust
MPH
rain 1hr
in
rain 24hr
in
rain mn
in
humidity
%
barometer
mb
20260507214803 70 248 3.0 7.0 0.00 0.00 0.00 41 1014.8
20260507214303 70 230 3.0 7.0 0.00 0.00 0.00 48 1014.7
20260507213803 70 254 2.0 7.0 0.00 0.00 0.00 41 1014.8
20260507212803 70 195 2.0 7.0 0.00 0.00 0.00 42 1015.0
20260507212306 70 192 2.0 5.0 0.00 0.00 0.00 46 1015.2
20260507211803 69 231 2.0 6.0 0.00 0.00 0.00 43 1015.2
20260507211303 69 300 2.0 6.0 0.00 0.00 0.00 47 1015.3
20260507210802 69 286 1.0 5.0 0.00 0.00 0.00 43 1015.3
20260507210302 69 188 1.0 3.0 0.00 0.00 0.00 49 1015.4
20260507205803 69 219 2.0 4.0 0.00 0.00 0.00 46 1015.5
20260507204302 70 238 2.0 6.0 0.00 0.00 0.00 44 1015.6
20260507203804 70 267 2.0 7.0 0.00 0.00 0.00 45 1015.7
20260507203304 70 282 2.0 7.0 0.00 0.00 0.00 41 1015.8
20260507202306 70 298 2.0 5.0 0.00 0.00 0.00 51 1015.8
20260507201804 70 175 2.0 6.0 0.00 0.00 0.00 44 1015.8
20260507201303 70 303 2.0 6.0 0.00 0.00 0.00 42 1015.8
20260507200803 69 271 2.0 8.0 0.00 0.00 0.00 45 1015.9
20260507200303 69 237 3.0 8.0 0.00 0.00 0.00 44 1016.0
20260507195804 69 323 2.0 7.0 0.00 0.00 0.00 43 1016.1
20260507194803 70 355 3.0 7.0 0.00 0.00 0.00 51 1016.3
20260507194302 70 184 3.0 7.0 0.00 0.00 0.00 42 1016.2
20260507193804 69 342 2.0 7.0 0.00 0.00 0.00 43 1016.3
20260507193302 69 202 1.0 4.0 0.00 0.00 0.00 44 1016.3
20260507192803 69 36 1.0 5.0 0.00 0.00 0.00 42 1016.5
20260507192306 69 345 2.0 5.0 0.00 0.00 0.00 45 1016.6
20260507191803 68 109 3.0 7.0 0.00 0.00 0.00 49 1016.7
20260507190804 68 186 3.0 10.0 0.00 0.00 0.00 44 1016.8
20260507190303 68 200 2.0 6.0 0.00 0.00 0.00 42 1016.6
20260507185757 68 218 2.0 5.0 0.00 0.00 0.00 46 1016.9
20260507185247 68 298 2.0 9.0 0.00 0.00 0.00 42 1016.8
20260507184741 67 190 3.0 9.0 0.00 0.00 0.00 43 1016.8
20260507184233 68 246 3.0 7.0 0.00 0.00 0.00 44 1016.9
20260507183734 67 151 3.0 8.0 0.00 0.00 0.00 46 1016.9
20260507183234 67 278 3.0 8.0 0.00 0.00 0.00 44 1017.0
20260507182734 67 126 3.0 6.0 0.00 0.00 0.00 42 1017.0
20260507182234 67 210 3.0 7.0 0.00 0.00 0.00 40 1017.1
20260507181232 67 173 1.0 6.0 0.00 0.00 0.00 43 1017.1
20260507180730 67 322 1.0 4.0 0.00 0.00 0.00 42 1017.2
20260507180230 67 308 2.0 7.0 0.00 0.00 0.00 46 1017.4
20260507175731 67 232 3.0 7.0 0.00 0.00 0.00 41 1017.4
20260507175230 67 215 3.0 7.0 0.00 0.00 0.00 47 1017.5
20260507173231 66 198 1.0 5.0 0.00 0.00 0.00 46 1017.8
20260507172231 65 84 2.0 7.0 0.00 0.00 0.00 39 1018.0
20260507171732 65 207 2.0 7.0 0.00 0.00 0.00 43 1018.1
20260507171239 66 90 2.0 5.0 0.00 0.00 0.00 39 1018.2
20260507170738 66 216 1.0 5.0 0.00 0.00 0.00 44 1018.2
20260507170235 66 246 2.0 4.0 0.00 0.00 0.00 42 1018.3
20260507165735 66 35 2.0 5.0 0.00 0.00 0.00 43 1018.4
20260507165233 66 252 2.0 5.0 0.00 0.00 0.00 44 1018.4
20260507164732 66 332 2.0 5.0 0.00 0.00 0.00 41 1018.4
20260507164230 66 298 1.0 3.0 0.00 0.00 0.00 42 1018.5
20260507163731 65 40 1.0 5.0 0.00 0.00 0.00 47 1018.5
20260507163231 65 212 1.0 5.0 0.00 0.00 0.00 43 1018.6
20260507162230 65 242 2.0 5.0 0.00 0.00 0.00 41 1018.7
20260507161731 64 169 2.0 4.0 0.00 0.00 0.00 42 1018.8
20260507160731 64 202 2.0 4.0 0.00 0.00 0.00 46 1018.8
20260507155732 64 219 2.0 5.0 0.00 0.00 0.00 47 1018.9
20260507155231 64 321 2.0 5.0 0.00 0.00 0.00 48 1018.9
20260507154730 63 49 1.0 4.0 0.00 0.00 0.00 53 1019.0
20260507154231 63 51 2.0 6.0 0.00 0.00 0.00 50 1019.0
20260507153731 62 47 2.0 6.0 0.00 0.00 0.00 45 1019.0
20260507153231 62 80 2.0 6.0 0.00 0.00 0.00 47 1019.2
20260507152731 62 63 2.0 6.0 0.00 0.00 0.00 48 1019.2
20260507152231 62 88 1.0 3.0 0.00 0.00 0.00 46 1019.2
20260507151725 61 76 2.0 5.0 0.00 0.00 0.00 48 1019.2
20260507151226 61 11 1.0 5.0 0.00 0.00 0.00 48 1019.0
20260507150726 61 31 1.0 4.0 0.00 0.00 0.00 49 1019.2
20260507145723 60 24 1.0 5.0 0.00 0.00 0.00 53 1019.2
20260507145224 60 37 1.0 3.0 0.00 0.00 0.00 59 1019.2
20260507144724 59 28 1.0 5.0 0.00 0.00 0.00 56 1019.2
20260507144224 59 58 1.0 5.0 0.00 0.00 0.00 58 1019.2
20260507143724 58 30 1.0 5.0 0.00 0.00 0.00 59 1019.2
20260507142724 57 69 1.0 3.0 0.00 0.00 0.00 65 1019.2
20260507141723 56 85 1.0 4.0 0.00 0.00 0.00 66 1019.0
20260507141224 55 75 1.0 3.0 0.00 0.00 0.00 69 1019.2
20260507140722 54 43 2.0 3.0 0.00 0.00 0.00 71 1019.0
20260507140216 53 61 2.0 6.0 0.00 0.00 0.00 71 1019.2
20260507135710 51 55 1.0 6.0 0.00 0.00 0.00 78 1019.2
20260507135204 50 76 1.0 4.0 0.00 0.00 0.00 87 1019.0
20260507134704 49 24 1.0 4.0 0.00 0.00 0.00 92 1019.2
20260507133704 48 22 0.0 3.0 0.00 0.00 0.00 96 1019.3
20260507133204 47 15 0.0 2.0 0.00 0.00 0.00 96 1019.3
20260507132705 46 202 0.0 3.0 0.00 0.00 0.00 96 1019.2
20260507132205 45 231 1.0 3.0 0.00 0.00 0.00 96 1019.4
20260507131705 44 117 0.0 1.0 0.00 0.00 0.00 96 1019.3
20260507130705 42 144 0.0 2.0 0.00 0.00 0.00 95 1019.2
20260507130205 42 254 0.0 2.0 0.00 0.00 0.00 95 1019.2
20260507125704 41 287 0.0 1.0 0.00 0.00 0.00 95 1019.2
20260507125203 40 287 0.0 0.0 0.00 0.00 0.00 95 1019.2
20260507124701 40 287 0.0 0.0 0.00 0.00 0.00 95 1019.2
20260507124152 40 287 0.0 0.0 0.00 0.00 0.00 94 1019.0
20260507123142 39 287 0.0 0.0 0.00 0.00 0.00 94 1018.9
20260507122636 39 287 0.0 0.0 0.00 0.00 0.00 94 1018.8
20260507122130 39 287 0.0 0.0 0.00 0.00 0.00 94 1018.7
20260507121630 39 287 0.0 0.0 0.00 0.00 0.00 94 1018.7
20260507121130 38 287 0.0 0.0 0.00 0.00 0.00 94 1018.8
20260507120629 38 288 0.0 0.0 0.00 0.00 0.00 93 1018.8
20260507120129 38 288 0.0 0.0 0.00 0.00 0.00 93 1018.7
20260507115629 38 288 0.0 0.0 0.00 0.00 0.00 93 1018.6
20260507115129 38 288 0.0 1.0 0.00 0.00 0.00 93 1018.5
20260507114629 38 288 0.0 1.0 0.00 0.00 0.00 93 1018.4
20260507113629 38 288 0.0 1.0 0.00 0.00 0.00 93 1018.5
20260507113131 38 288 0.0 0.0 0.00 0.00 0.00 93 1018.6
20260507112630 38 288 0.0 0.0 0.00 0.00 0.00 93 1018.7
20260507112130 38 288 0.0 0.0 0.00 0.00 0.00 93 1018.7
20260507111628 38 288 0.0 0.0 0.00 0.00 0.00 93 1018.5
20260507111129 38 288 0.0 0.0 0.00 0.00 0.00 93 1018.4
20260507110628 38 288 0.0 0.0 0.00 0.00 0.00 93 1018.3
20260507105629 38 288 0.0 1.0 0.00 0.00 0.00 92 1018.2
20260507105129 38 288 0.0 1.0 0.00 0.00 0.00 92 1018.3
20260507104629 38 288 0.0 0.0 0.00 0.00 0.00 92 1018.2
20260507104130 38 288 0.0 0.0 0.00 0.00 0.00 92 1018.2
20260507103629 38 288 0.0 0.0 0.00 0.00 0.00 92 1018.2
20260507103131 38 288 0.0 0.0 0.00 0.00 0.00 92 1018.1
20260507102630 38 288 0.0 1.0 0.00 0.00 0.00 92 1018.0
20260507102130 38 288 0.0 1.0 0.00 0.00 0.00 92 1018.0
20260507101629 38 288 0.0 1.0 0.00 0.00 0.00 92 1018.0
20260507101129 38 288 0.0 0.0 0.00 0.00 0.00 92 1018.1
20260507100629 39 288 0.0 0.0 0.00 0.00 0.00 92 1018.1
20260507100129 39 288 0.0 0.0 0.00 0.00 0.00 92 1018.2
20260507095629 39 288 0.0 0.0 0.00 0.00 0.00 92 1018.2
20260507095130 39 288 0.0 0.0 0.00 0.00 0.00 92 1018.3
20260507094629 39 288 0.0 0.0 0.00 0.00 0.00 92 1018.4
20260507093629 39 288 0.0 1.0 0.00 0.00 0.00 92 1018.5
20260507093131 39 288 0.0 1.0 0.00 0.00 0.00 92 1018.6
20260507092629 39 288 0.0 1.0 0.00 0.00 0.00 92 1018.4
20260507092120 39 288 0.0 1.0 0.00 0.00 0.00 92 1018.1
20260507091618 39 288 0.0 1.0 0.00 0.00 0.00 92 1018.2
20260507091118 39 288 0.0 1.0 0.00 0.00 0.00 92 1018.3
20260507090618 40 288 0.0 0.0 0.00 0.00 0.00 91 1018.4
20260507090117 40 288 0.0 0.0 0.00 0.00 0.00 91 1018.3
20260507085618 40 288 0.0 0.0 0.00 0.00 0.00 91 1018.3
20260507085118 40 288 0.0 0.0 0.00 0.00 0.00 91 1018.3
20260507084616 40 288 0.0 0.0 0.00 0.00 0.00 92 1018.2
20260507084114 40 288 0.0 1.0 0.00 0.00 0.00 91 1018.1
20260507083614 40 288 0.0 1.0 0.00 0.00 0.00 91 1018.1
20260507083114 40 288 0.0 1.0 0.00 0.00 0.00 91 1018.0
20260507082613 40 288 0.0 0.0 0.00 0.00 0.00 91 1018.0
20260507082112 40 288 0.0 0.0 0.00 0.00 0.00 91 1018.2
20260507081606 40 288 0.0 0.0 0.00 0.00 0.00 91 1018.1
20260507081106 40 288 0.0 1.0 0.00 0.00 0.00 91 1018.2
20260507080104 41 288 0.0 1.0 0.00 0.00 0.00 91 1018.1
20260507075602 41 288 0.0 0.0 0.00 0.00 0.00 91 1017.9
20260507075102 41 288 0.0 1.0 0.00 0.00 0.00 91 1017.8
20260507074102 41 288 0.0 1.0 0.00 0.00 0.00 90 1018.0
20260507073603 41 288 0.0 0.0 0.00 0.00 0.00 90 1018.2
20260507073101 41 288 0.0 0.0 0.00 0.00 0.00 90 1018.1
20260507072601 41 288 0.0 1.0 0.00 0.00 0.00 90 1018.0
20260507072101 41 288 0.0 1.0 0.00 0.00 0.00 89 1018.0
20260507071602 41 288 0.0 0.0 0.00 0.00 0.00 89 1018.2
20260507071101 41 288 0.0 0.0 0.00 0.00 0.00 89 1018.3
20260507070101 41 288 0.0 0.0 0.00 0.00 0.00 88 1018.3
20260507065601 42 288 0.0 0.0 0.00 0.00 0.00 87 1018.5
20260507065101 42 288 0.0 0.0 0.00 0.00 0.00 87 1018.5
20260507064601 42 288 0.0 0.0 0.00 0.00 0.00 87 1018.5
20260507064100 42 288 0.0 0.0 0.00 0.00 0.00 87 1018.4
20260507063603 42 288 0.0 0.0 0.00 0.00 0.00 87 1018.4
20260507063101 42 288 0.0 0.0 0.00 0.00 0.00 87 1018.3
20260507061601 42 288 0.0 0.0 0.00 0.00 0.00 87 1018.3
20260507061101 43 288 0.0 0.0 0.00 0.00 0.00 86 1018.3
20260507060601 43 288 0.0 0.0 0.00 0.00 0.00 86 1018.3
20260507060101 43 288 0.0 0.0 0.00 0.00 0.00 86 1018.3
20260507055602 43 288 0.0 0.0 0.00 0.00 0.00 86 1018.3
20260507054559 44 288 0.0 0.0 0.00 0.00 0.00 86 1018.3
20260507054047 44 288 0.0 0.0 0.00 0.01 0.00 86 1018.2
20260507053043 44 288 0.0 0.0 0.00 0.01 0.00 85 1018.3
20260507052544 44 288 0.0 0.0 0.00 0.01 0.00 85 1018.2
20260507052044 44 288 0.0 0.0 0.00 0.01 0.00 85 1018.1
20260507051044 45 288 0.0 1.0 0.00 0.01 0.00 85 1018.2
20260507050544 45 288 0.0 0.0 0.00 0.01 0.00 83 1018.1
20260507050043 45 288 0.0 0.0 0.00 0.01 0.00 83 1018.2
20260507045539 45 288 0.0 0.0 0.00 0.01 0.01 83 1018.0
20260507044537 45 288 0.0 0.0 0.00 0.01 0.01 83 1017.9
20260507044037 46 288 0.0 0.0 0.00 0.01 0.01 83 1017.8
20260507043538 46 288 0.0 0.0 0.00 0.01 0.01 82 1017.8
20260507043035 46 288 0.0 0.0 0.00 0.01 0.01 81 1017.8
20260507042532 46 288 0.0 0.0 0.00 0.01 0.01 81 1017.7
20260507042030 46 287 0.0 0.0 0.00 0.01 0.01 80 1017.8
20260507041530 46 287 0.0 0.0 0.00 0.01 0.01 81 1017.8
20260507041030 47 287 0.0 0.0 0.00 0.01 0.01 81 1017.7
20260507040029 47 287 0.0 0.0 0.00 0.01 0.01 81 1017.6
20260507035029 47 287 0.0 0.0 0.00 0.01 0.01 81 1017.6
20260507034029 47 287 0.0 0.0 0.00 0.01 0.01 81 1017.6
20260507033530 48 287 0.0 0.0 0.00 0.01 0.01 80 1017.7
20260507033029 48 287 0.0 0.0 0.00 0.01 0.01 80 1017.7
20260507032529 48 287 0.0 0.0 0.00 0.01 0.01 80 1017.6
20260507032029 48 287 0.0 0.0 0.00 0.01 0.01 79 1017.6
20260507031526 48 287 0.0 0.0 0.00 0.01 0.01 79 1017.6
20260507031025 49 287 0.0 1.0 0.00 0.01 0.01 80 1017.5
20260507030522 49 287 0.0 1.0 0.00 0.01 0.01 79 1017.4
20260507030020 49 287 0.0 0.0 0.00 0.01 0.01 79 1017.3
20260507025518 49 287 0.0 0.0 0.00 0.01 0.01 79 1017.2
20260507025017 49 287 0.0 0.0 0.00 0.01 0.01 79 1017.2
20260507024514 50 287 0.0 0.0 0.00 0.01 0.01 79 1017.1
20260507024013 50 287 0.0 0.0 0.00 0.01 0.01 79 1017.1
20260507023511 50 287 0.0 1.0 0.00 0.01 0.01 78 1017.0
20260507023005 50 287 0.0 1.0 0.00 0.01 0.01 77 1016.9
20260507022002 51 287 0.0 0.0 0.00 0.01 0.01 76 1016.9
20260507021502 51 287 0.0 1.0 0.00 0.01 0.01 73 1016.9
20260507021002 52 287 0.0 1.0 0.00 0.01 0.01 73 1016.8
20260507020502 52 287 0.0 0.0 0.00 0.01 0.01 72 1016.8
20260507015502 53 287 0.0 0.0 0.00 0.01 0.01 71 1016.8
20260507015003 53 287 0.0 0.0 0.00 0.01 0.01 69 1016.8
20260507014502 53 287 0.0 0.0 0.00 0.01 0.01 68 1016.7
20260507014002 54 287 0.0 0.0 0.00 0.01 0.01 69 1016.6
20260507012458 55 286 0.0 1.0 0.00 0.01 0.01 67 1016.3
20260507011956 55 288 0.0 1.0 0.00 0.01 0.01 65 1016.3
20260507011446 56 288 0.0 0.0 0.00 0.01 0.01 65 1016.3
20260507005939 57 282 0.0 1.0 0.00 0.01 0.01 66 1016.2
20260507005438 57 269 0.0 2.0 0.00 0.01 0.01 65 1016.1
20260507004938 57 289 0.0 2.0 0.00 0.01 0.01 65 1016.1
20260507004437 57 51 0.0 3.0 0.00 0.01 0.01 65 1016.0
20260507003934 57 318 0.0 3.0 0.00 0.01 0.01 67 1016.1
20260507003434 57 265 0.0 2.0 0.00 0.01 0.01 65 1016.1
20260507002934 57 221 0.0 2.0 0.00 0.01 0.01 66 1016.2
20260507002434 57 304 0.0 1.0 0.00 0.01 0.01 65 1016.0
20260507001934 58 304 0.0 1.0 0.00 0.01 0.01 67 1015.9
20260507001432 58 305 0.0 1.0 0.00 0.01 0.01 66 1015.9
20260507000933 58 306 0.0 1.0 0.00 0.01 0.01 65 1015.9
20260506235931 58 82 0.0 3.0 0.00 0.01 0.01 63 1015.9
20260506235430 58 82 0.0 3.0 0.00 0.01 0.01 62 1015.8
20260506234931 58 338 0.0 2.0 0.00 0.01 0.01 61 1015.9
20260506234430 58 336 1.0 3.0 0.00 0.01 0.01 60 1015.8
20260506233429 59 292 0.0 2.0 0.00 0.01 0.01 62 1015.7
20260506232930 59 52 0.0 2.0 0.00 0.01 0.01 60 1015.7
20260506232429 59 202 0.0 2.0 0.00 0.01 0.01 59 1015.7
20260506231930 59 30 0.0 2.0 0.00 0.01 0.01 61 1015.7
20260506231429 59 148 1.0 4.0 0.00 0.01 0.01 57 1015.7
20260506230929 60 144 1.0 4.0 0.00 0.01 0.01 61 1015.6
20260506230429 60 20 1.0 3.0 0.00 0.01 0.01 57 1015.4
20260506225929 60 197 1.0 3.0 0.00 0.01 0.01 58 1015.2
20260506225429 60 115 1.0 3.0 0.00 0.01 0.01 58 1015.2
20260506223930 61 117 2.0 4.0 0.00 0.01 0.01 57 1014.9
20260506223429 61 13 2.0 7.0 0.00 0.01 0.01 58 1014.8
20260506221931 61 205 2.0 9.0 0.00 0.01 0.01 57 1014.6
20260506220929 61 147 1.0 7.0 0.00 0.01 0.01 56 1014.7
20260506215929 62 17 1.0 7.0 0.00 0.01 0.01 58 1014.8
20260506215429 62 35 1.0 5.0 0.00 0.01 0.01 59 1015.0